Simultaneous Nadir Overpasses (SNOs) Predictions

Prediction of SNOs between AQUA and GOES-15 Satellite Orbit:

Table of predicted SNOs for the next 14.0 days since TLE Epoch: 1/25/2013
Index Date Time (AQUA) AQUA Lat,Lon GOES-15 Lat,Lon Distance(km) Time Diff (sec)
1 01/26/2013 10:38:04 0.13,-135.63 -0.08,-134.55 122.30 80
2 01/28/2013 10:25:51 -0.48,-132.66 -0.08,-134.44 203.38 80
3 01/28/2013 22:47:15 -0.63,-137.85 0.08,-134.38 394.06 80
4 01/30/2013 22:35:03 -0.03,-134.88 0.08,-134.27 69.54 80
5 02/01/2013 22:22:52 0.58,-131.92 0.08,-134.15 253.89 80
6 02/02/2013 10:44:07 0.57,-137.07 -0.08,-134.16 331.32 80
7 02/04/2013 10:31:57 -0.03,-134.11 -0.07,-134.03 10.04 80
8 02/06/2013 10:19:48 -0.63,-131.16 -0.07,-133.89 310.89 80
9 02/06/2013 22:41:13 -0.48,-136.35 0.06,-133.81 288.55 80




NCC Satellite Simultaneous Nadir Overpasses (SNOs) Prediction Service
